Regional Weather Roundup
Issued by NWS

Home | Current Version | Previous Version | Graphics & Text | Print | Product List | Glossary On
Versions: 1 2 3 4 5 6 7 8 9 10 11 12 13 14 15 16 17 18 19 20 21 22 23 24 25 26 27 28 29 30 31 32 33 34 35 36 37 38 39 40 41 42 43 44 45 46 47 48 49 50
000
ASUS43 KIND 251709
RWRIN

WEATHER ROUNDUP FOR INDIANA
NATIONAL WEATHER SERVICE INDIANAPOLIS IN
1200 PM EST THU DEC 25 2014

NOTE: "FAIR" INDICATES FEW OR NO CLOUDS BELOW 12,000 FEET WITH NO
SIGNIFICANT WEATHER AND/OR OBSTRUCTIONS TO VISIBILITY.

* - STATION DOES NOT REPORT WEATHER SUCH AS PRECIPITATION OR FOG.

+ - STATION NOT QUALITY CONTROLLED BY THE NATIONAL WEATHER SERVICE.
    USE DATA WITH CAUTION...ESPECIALLY DEWPOINT AND RELATIVE
    HUMIDITY OBSERVATIONS.

INZ001>003-010>013-019-020-251800-
NORTHWEST INDIANA

CITY           SKY/WX    TMP DP  RH WIND       PRES   REMARKS
GARY /AIRPORT/ CLOUDY    37  27  65 MISG      29.99R
KNOX *+        CLOUDY    35  28  75 SW17G23   30.00S WCI  25
LA PORTE +     CLOUDY    37  31  79 SW17G24   29.99S
MICHIGAN CITY+ CLOUDY    36  27  69 SW18G24   29.99S
MONTICELLO +   CLOUDY    37  32  82 SW14G22   30.03S
RENSSELAER +   CLOUDY    36  34  93 SW15      30.02F
VALPARAISO     CLOUDY    36  29  75 SW17      30.00R

$$

LMZ046-743>745-251800-
SOUTHERN LAKE MICHIGAN

STATION/POSITION TIME  TEMP WIND        PRES
                       AIR  DIR/SP/G
                 (UTC) (F)  (DEG/KT/KT) (MB)
MICHIGAN CITY    1700   35  210/ 18/ 22   N/A

$$

INZ004-005-014>016-021>024-251800-
NORTH CENTRAL INDIANA

CITY           SKY/WX    TMP DP  RH WIND       PRES   REMARKS
GOSHEN         CLOUDY    35  29  78 W20G31    29.99R WCI  24
LOGANSPORT +   CLOUDY    36  30  80 SW15      30.05R
PERU/GRISSOM   CLOUDY    36  36  99 SW20      30.04R
ROCHESTER +    CLOUDY    37  32  81 SW13G18   30.03S
SOUTH BEND     CLOUDY    36  30  79 SW13      29.99R
WARSAW +       CLOUDY    34  30  86 SW17G25   30.01R WCI  23

$$

INZ006>009-017-018-025>027-251800-
NORTHEAST INDIANA

CITY           SKY/WX    TMP DP  RH WIND       PRES   REMARKS
ANGOLA *+      CLOUDY    34  28  80 W16       29.97S WCI  23
AUBURN +       CLOUDY    36  30  80 SW8G17    30.01R
FORT WAYNE     CLOUDY    36  30  79 W20       30.03R
HUNTINGTON +   CLOUDY    36  30  80 W14G22    30.03R

$$

INZ028-029-035-036-043>045-051>053-251800-
WEST CENTRAL INDIANA

CITY           SKY/WX    TMP DP  RH WIND       PRES   REMARKS
CRAWFORDSVL +  CLOUDY    36  27  69 SW14      30.07
GREENCASTLE +  CLOUDY    36  28  75 SW10G18   30.09S
LAFAYETTE      CLOUDY    37  30  75 SW13G25   30.05R
TERRE HAUTE    CLOUDY    39  31  72 SW14G23   30.09F

$$

INZ030>032-037>040-046>048-054>057-064-065-251800-
CENTRAL INDIANA

CITY           SKY/WX    TMP DP  RH WIND       PRES   REMARKS
CP ATTERBURY + CLOUDY    37  32  81 MISG      30.12S
COLUMBUS       CLOUDY    37  32  81 SW10      30.13
FRANKFORT +    CLOUDY    37  32  83 S16G22    30.07S
INDIANAPOLIS   CLOUDY    36  31  82 SW12      30.08S
-EAGLE CREEK   CLOUDY    36  30  79 SW6G20    30.08R
KOKOMO *+      CLOUDY    36  28  75 SW24G31   30.06R
MARION +       CLOUDY    36  30  81 SW18      30.06R
MT COMFORT *+  CLOUDY    36  27  69 SW13G21   30.09S
SHELBYVILLE    CLOUDY    39  31  72 SW14      30.10R
ZIONSVILLE +   CLOUDY    37  30  76 SW10G18   30.07S

$$

INZ033-034-041-042-049-050-058-059-251800-
EAST CENTRAL INDIANA

CITY           SKY/WX    TMP DP  RH WIND       PRES   REMARKS
MUNCIE         CLOUDY    37  30  75 SW13G23   30.06R

$$

INZ060-061-067>069-081>083-085>088-251800-
SOUTHWEST INDIANA

CITY           SKY/WX    TMP DP  RH WIND       PRES   REMARKS
EVANSVILLE     MOSUNNY   45  33  63 S16       30.15F
HUNTINGBURG *+ CLOUDY    43  30  61 SW13G21   30.16F
WASHINGTON +   CLOUDY    40  30  66 SW13      30.13F

$$

INZ062-063-066-070>080-084-089>092-251800-
SOUTH CENTRAL AND SOUTHEAST INDIANA

CITY           SKY/WX    TMP DP  RH WIND       PRES   REMARKS
BLOOMINGTON    CLOUDY    39  32  76 SW8       30.10S

$$



USA.gov is the U.S. government's official web portal to all federal, state and local government web resources and services.